EW5170 Weather Reports


Display with metric or nautical units.
time (UTC)temp
F
wind
direction
speed
MPH
gust
MPH
rain 1hr
in
rain 24hr
in
rain mn
in
humidity
%
barometer
mb
20260505224523 85 308 0.0 2.0 0.00 0.00 0.00 66 1002.3
20260505223016 86 194 0.0 2.0 0.00 0.00 0.00 65 1002.3
20260505221512 86 192 0.0 3.0 0.00 0.00 0.00 66 1002.2
20260505220011 86 153 0.0 4.0 0.00 0.00 0.00 65 1002.5
20260505214514 86 184 1.0 5.0 0.00 0.00 0.00 64 1002.8
20260505213007 87 103 0.0 3.0 0.00 0.00 0.00 65 1002.8
20260505211504 86 233 0.0 6.0 0.00 0.00 0.00 65 1003.3
20260505210003 86 196 0.0 4.0 0.00 0.00 0.00 65 1003.2
20260505204501 86 155 0.0 2.0 0.00 0.00 0.00 68 1003.4
20260505203110 86 208 0.0 4.0 0.00 0.00 0.00 67 1003.5
20260505201556 86 109 0.0 4.0 0.00 0.00 0.00 67 1003.8
20260505200054 85 116 1.0 3.0 0.00 0.00 0.00 68 1004.1
20260505194606 85 234 1.0 7.0 0.00 0.00 0.00 69 1004.2
20260505193048 84 18 0.0 2.0 0.00 0.00 0.00 71 1004.5
20260505191555 83 201 0.0 3.0 0.00 0.00 0.00 73 1004.6
20260505190043 81 263 0.0 3.0 0.00 0.00 0.00 73 1004.8
20260505184539 80 237 1.0 4.0 0.00 0.00 0.00 75 1005.0
20260505183035 79 217 0.0 4.0 0.00 0.00 0.00 78 1005.2
20260505181536 78 252 0.0 5.0 0.00 0.00 0.00 78 1005.3
20260505180038 78 248 0.0 4.0 0.00 0.00 0.00 79 1005.6
20260505174526 77 269 1.0 5.0 0.00 0.00 0.00 80 1005.8
20260505173025 76 252 0.0 8.0 0.00 0.00 0.00 82 1005.8
20260505171517 75 236 1.0 5.0 0.00 0.00 0.00 83 1005.8
20260505170017 75 212 1.0 7.0 0.00 0.00 0.00 84 1005.9
20260505164510 74 282 0.0 4.0 0.00 0.00 0.00 85 1006.0
20260505163010 73 198 1.0 7.0 0.00 0.00 0.00 85 1006.0
20260505161505 73 298 0.0 4.0 0.00 0.00 0.00 86 1005.9
20260505153108 72 257 0.0 5.0 0.00 0.00 0.00 86 1006.0
20260505151559 72 322 0.0 7.0 0.00 0.00 0.00 87 1005.9
20260505150120 72 159 0.0 4.0 0.00 0.00 0.00 87 1005.9
20260505124551 70 300 0.0 3.0 0.00 0.00 0.00 87 1004.8
20260505123050 70 101 0.0 4.0 0.00 0.00 0.00 87 1004.5
20260505121611 70 248 0.0 2.0 0.00 0.00 0.00 86 1004.3
20260505120038 70 287 0.0 4.0 0.00 0.00 0.00 86 1004.1
20260505114541 70 360 0.0 8.0 0.00 0.00 0.00 86 1004.0
20260505113038 70 91 1.0 5.0 0.00 0.00 0.00 86 1004.2
20260505111540 70 46 1.0 9.0 0.00 0.00 0.00 86 1004.0
20260505101539 70 13 0.0 3.0 0.00 0.00 0.00 85 1004.4
20260505100038 70 250 0.0 2.0 0.00 0.00 0.00 85 1004.5
20260505094529 70 193 0.0 3.0 0.00 0.00 0.00 85 1004.4
20260505093031 70 279 0.0 3.0 0.00 0.00 0.00 85 1004.7
20260505091534 70 268 0.0 5.0 0.00 0.00 0.00 85 1004.6
20260505090026 70 172 0.0 9.0 0.00 0.00 0.00 85 1004.8
20260505084526 70 175 0.0 7.0 0.00 0.00 0.00 85 1004.8
20260505083033 70 170 0.0 5.0 0.00 0.00 0.00 84 1004.9
20260505081625 70 274 2.0 9.0 0.00 0.00 0.00 84 1005.0
20260505080027 71 217 0.0 5.0 0.00 0.00 0.00 84 1005.0
20260505074519 71 296 0.0 6.0 0.00 0.00 0.00 83 1005.4
20260505073019 71 25 0.0 4.0 0.00 0.00 0.00 83 1005.5
20260505071522 71 355 0.0 8.0 0.00 0.00 0.00 83 1005.8
20260505070014 71 213 0.0 6.0 0.00 0.00 0.00 83 1005.9
20260505064512 71 332 0.0 5.0 0.00 0.00 0.00 82 1006.1
20260505063015 71 234 1.0 5.0 0.00 0.00 0.00 82 1006.2
20260505061511 71 184 0.0 4.0 0.00 0.00 0.00 82 1006.4
20260505060008 71 311 0.0 2.0 0.00 0.00 0.00 82 1006.4
20260505054508 71 134 0.0 3.0 0.00 0.00 0.00 81 1006.5
20260505053006 72 61 0.0 2.0 0.00 0.00 0.00 81 1006.3
20260505051505 72 188 1.0 3.0 0.00 0.00 0.00 81 1006.4
20260505041611 73 247 0.0 4.0 0.00 0.00 0.00 79 1006.3
20260505040105 73 155 0.0 5.0 0.00 0.00 0.00 78 1006.4
20260505034600 73 204 0.0 2.0 0.00 0.00 0.00 77 1006.5
20260505033059 74 142 0.0 5.0 0.00 0.00 0.00 76 1006.3
20260505031605 74 296 0.0 0.0 0.00 0.00 0.00 75 1006.2
20260505030107 75 151 0.0 2.0 0.00 0.00 0.00 75 1006.4
20260505024612 75 316 0.0 4.0 0.00 0.00 0.00 74 1006.3
20260505023104 75 271 0.0 2.0 0.00 0.00 0.00 73 1006.2
20260505021559 76 230 0.0 2.0 0.00 0.00 0.00 71 1006.2
20260505020156 76 261 0.0 2.0 0.00 0.00 0.00 70 1006.0
20260505014555 76 279 0.0 0.0 0.00 0.00 0.00 67 1006.1
20260505013054 77 200 0.0 2.0 0.00 0.00 0.00 65 1006.1
20260505011554 78 113 0.0 1.0 0.00 0.00 0.00 64 1006.0
20260505010110 78 284 0.0 3.0 0.00 0.00 0.00 63 1006.0
20260505004553 78 269 0.0 3.0 0.00 0.00 0.00 63 1005.9
20260505003053 79 330 2.0 5.0 0.00 0.00 0.00 62 1005.8
20260505001552 80 255 0.0 4.0 0.00 0.00 0.00 61 1005.7
20260505000059 80 101 1.0 4.0 0.00 0.00 0.00 60 1005.7
20260504234549 81 265 1.0 6.0 0.00 0.00 0.00 59 1006.0
20260504233052 82 175 0.0 5.0 0.00 0.00 0.00 57 1006.2
20260504231545 83 57 0.0 8.0 0.00 0.00 0.00 55 1006.2
20260504230103 84 67 0.0 7.0 0.00 0.00 0.00 55 1006.2